Printer-friendly version

IAU Minor Planet Center

Minor Planet Center

MPEC 2004-A08 : COMET C/2003 T3 (TABUR)

The following Minor Planet Electronic Circular may be linked-to from your own Web pages, but must not otherwise be redistributed electronically.


Read MPEC 2004-A07 Read MPEC 2004-A09


M.P.E.C. 2004-A08                                Issued 2004 Jan. 3, 16:21 UT

     The Minor Planet Electronic Circulars contain information on unusual
         minor planets and routine data on comets.  They are published
   on behalf of Commission 20 of the International Astronomical Union by the
          Minor Planet Center, Smithsonian Astrophysical Observatory,
                          Cambridge, MA 02138, U.S.A.

         Supported in part by the Steven and Michele Kirsch Foundation
             Prepared using the Tamkin Foundation Computer Network

                              MPC@CFA.HARVARD.EDU
          URL http://cfa-www.harvard.edu/iau/mpc.html  ISSN 1523-6714

                            COMET C/2003 T3 (TABUR)

Observations:
    CK03T030  C2003 11 29.01679 20 40 33.83 -42 16 30.6                 EA008834
    CK03T030  C2003 11 29.02862 20 40 34.76 -42 16 15.8                 EA008834
    CK03T030  C2003 11 29.03935 20 40 35.52 -42 16 02.2                 EA008834
    CK03T030  C2003 12 01.02574 20 43 08.09 -41 34 51.6                 EA008834
    CK03T030  C2003 12 01.03969 20 43 09.15 -41 34 33.2                 EA008834
    CK03T030  C2003 12 06.00212 20 49 40.81 -39 50 59.6                 EA008834
    CK03T030  C2003 12 06.01541 20 49 41.86 -39 50 43.0                 EA008834
    CK03T030  C2003 12 06.02956 20 49 42.98 -39 50 24.6                 EA008834
    CK03T030  C2003 12 06.04206 20 49 43.96 -39 50 09.4                 EA008834
    CK03T030  C2003 12 12.01900 20 57 53.42 -37 43 54.4                 EA008834
    CK03T030  C2003 12 16.38125 21 04 01.38 -36 10 40.4          12.7 T EA008372
    CK03T030  C2003 12 16.38646 21 04 01.83 -36 10 33.3                 EA008372
    CK03T030   2003 12 21.38368 21 11 13.26 -34 22 18.6          12.7 T EA008372
    CK03T030   2003 12 21.38924 21 11 13.70 -34 22 11.3                 EA008372
    CK03T030  C2003 12 21.39587 21 11 14.32 -34 22 04.2                 EA008340
    CK03T030  C2003 12 21.39641 21 11 14.34 -34 22 02.1                 EA008340
    CK03T030  C2003 12 21.39737 21 11 14.45 -34 22 00.9                 EA008340
    CK03T030  C2003 12 21.39844 21 11 14.50 -34 21 58.7          12.1 T EA008340
    CK03T030  C2003 12 22.06629 21 12 13.25 -34 07 27.1          13.4 T EA008333
    CK03T030  C2003 12 22.06981 21 12 13.40 -34 07 21.3          13.7 T EA008333
    CK03T030  C2003 12 22.07423 21 12 13.78 -34 07 15.2          13.8 T EA008333
    CK03T030  C2003 12 23.35714 21 14 06.31 -33 39 09.6          12.3 T EA008349
    CK03T030  C2003 12 23.36044 21 14 06.62 -33 39 05.8                 EA008349
    CK03T030  C2003 12 23.36417 21 14 06.98 -33 39 01.1                 EA008349
    CK03T030  C2003 12 23.36793 21 14 07.19 -33 38 55.3                 EA008349
    CK03T030  C2003 12 23.40094 21 14 10.21 -33 38 10.9                 EA008D70
    CK03T030  C2003 12 23.40321 21 14 10.32 -33 38 07.0                 EA008D70
    CK03T030  C2003 12 23.40376 21 14 10.45 -33 38 06.5          12.9 T EA008367
    CK03T030  C2003 12 23.40654 21 14 10.68 -33 38 03.5          12.8 T EA008367
    CK03T030  C2003 12 23.40932 21 14 10.89 -33 38 00.4          12.7 T EA008367
    CK03T030  C2003 12 23.40975 21 14 10.89 -33 37 59.4          13.1 N EA008D70
    CK03T030   2003 12 26.37951 21 18 33.96 -32 32 31.0          13.4 T EA008372
    CK03T030   2003 12 26.38316 21 18 34.30 -32 32 26.7                 EA008372
    CK03T030   2003 12 26.38691 21 18 34.66 -32 32 20.9                 EA008372
    CK03T030  C2003 12 28.40522 21 21 35.20 -31 47 30.5                 EA008D70
    CK03T030  C2003 12 28.40640 21 21 35.28 -31 47 28.5                 EA008D70
    CK03T030  C2003 12 28.40745 21 21 35.44 -31 47 28.1          13.5 N EA008D70

Observer details:
333 Desert Eagle Observatory.  Observer W. K. Y. Yeung.  0.45-m f/3 reflector
    + CCD.
340 Toyonaka.  Observer Y. Ezaki.  0.30-m f/6 reflector + CCD.
349 Ageo.  Observer K. Kadota.  0.25-m f/5.0 reflector + CCD.
367 Yatsuka.  Observer H. Abe.  0.26-m f/6 reflector + CCD.
372 Geisei.  Observer T. Seki.  0.60-m f/3.5 reflector.
834 Buenos Aires-AAAA.  Observers R. Mackintosh, R. Caprio.  Measurer
    R. Mackintosh.  0.25-m f/6.3 Schmidt-Cassegrain + CCD.
D70 Tosa.  Observer S. Shimomoto.  0.20-m f/6.3 Schmidt-Cassegrain + CCD.

Orbital elements:
    C/2003 T3 (Tabur)
Epoch 2004 Apr. 25.0 TT = JDT 2453120.5
T 2004 Apr. 29.01053 TT                                 MPC
q   1.4807372            (2000.0)            P               Q
z  +0.0002924      Peri.   43.78828     +0.80224723     -0.57148949
 +/-0.0000432      Node   347.06173     +0.03355076     +0.33185991
e   0.9995670      Incl.   50.44241     +0.59604843     +0.75051234
Residuals in seconds of arc
031014 E13  0.8+  0.4+    031029 428  0.7+  0.1-    031126 428  0.7+  0.3-
031014 E13  0.5-  0.7+    031029 428  0.8+  0.2+    031126 428  0.6+  0.1-
031014 E13  0.3-  0.3-    031029 428  0.7+  0.4+    031126 428  0.7+  0.0
031014 E13  0.6+  0.2-    031030 E14  0.0   0.2-    031129 834  0.3-  0.6-
031014 E13  1.0+  1.1+    031030 E14  0.2+  0.2-    031129 834  0.1+  0.6-
031014 E13  0.8+  0.4-    031030 E14  0.2+  0.0     031129 834  0.5-  0.4-
031015 428  0.1+  0.0     031030 D70  0.5-  1.3-    031201 834  0.6-  0.6-
031015 428  0.2+  0.0     031030 D70  0.4+  1.9+    031201 834  0.8-  0.3+
031015 428  0.2+  0.3+    031030 E14  0.1+  0.0     031202 372 (0.8+  2.3+)
031015 E14  0.2-  0.4-    031030 E14  0.1-  0.3+    031202 372  1.6+  1.9+
031015 E14  0.1-  0.2-    031102 834  0.3-  0.5-    031206 834  0.3-  0.3-
031015 E14  0.0   0.2-    031102 834  0.1-  0.5-    031206 834  0.5-  0.6-
031016 D82  0.7+  0.0     031102 834  0.2-  0.5-    031206 834  0.6-  0.1-
031016 D82  0.7-  0.8+    031103 834  0.6-  0.2-    031206 834  0.8-  0.8-
031017 428  0.1+  0.2-    031103 834  0.6-  0.3-    031206 E14  0.1+  0.2+
031017 428  0.1+  0.1+    031103 428  0.8+  0.2-    031206 E14  0.2+  0.1+
031017 428  0.0   0.1+    031103 428  0.8+  0.0     031206 E14  0.1+  0.8-
031017 E14  0.2-  0.0     031103 428  0.8+  0.1+    031207 E14  0.2+  0.1-
031017 E14  0.0   0.2+    031103 428  0.6+  0.1-    031207 E14  0.1-  0.4+
031017 E14  0.3-  0.2-    031104 E14  0.2+  0.1-    031207 E14  0.0   0.6-
031017 E14  0.2-  0.1-    031104 E14  0.4+  0.1-    031210 900  0.4+  0.6+
031017 E13  0.9+  0.6+    031104 E14  0.2+  0.1+    031210 900  0.1+  0.1-
031017 E13  0.6+  0.6+    031108 E14  0.4+  0.6+    031212 834  0.0   0.1+
031017 E13  0.2+  0.8+    031108 E14  0.4+  0.5+    031212 372  1.3-  0.0
031018 428  0.0   0.0     031108 E14  0.3+  0.4+    031212 372  0.9-  0.8+
031018 E14  0.1-  0.2+    031108 E14  0.3+  0.3+    031212 372  0.9-  0.4+
031018 E14  0.1+  0.1-    031110 E14  0.5+  0.0     031212 372  0.6-  1.1-
031018 428  0.1+  0.0     031110 E14  0.5+  0.2-    031213 347  0.1-  0.4-
031018 428  0.1-  0.0     031110 E14  0.6+  0.2-    031213 347  0.1+  0.2+
031018 E14  0.1-  0.1-    031111 372  1.6-  0.4+    031213 347  0.4+  1.0-
031020 834  0.8-  0.5-    031111 372  1.4-  1.8+    031214 372  0.8-  0.3-
031020 834  0.9-  0.4-    031111 372  1.6-  1.9+    031214 E14  0.3+  0.4-
031020 834  0.8-  0.3-    031113 372  1.6+  1.6+    031214 E14  0.1-  0.1-
031020 834  0.8-  0.3-    031113 372  1.1-  1.4+    031214 E14  0.0   0.7-
031020 428  0.0   0.2-    031113 372  0.6-  1.3+    031214 859  0.0   0.2+
031020 428  0.1+  0.0     031113 E14  0.2+  0.9+    031216 372  0.1-  0.2-
031020 428  0.1-  0.1-    031113 E14  0.3+  0.4+    031216 372  0.1+  0.1+
031021 D82  1.9-  0.5-    031113 E14  0.3+  0.7+    031221 372  0.4+  0.8+
031021 D82 (1.2+  2.9+)   031114 834  0.2-  0.4-    031221 372  0.1-  0.8+
031022 428  0.2+  0.1-    031114 834  0.1-  0.6-    031221 340  0.5+  0.9-
031022 428  0.4+  0.1-    031114 834  0.2-  0.3-    031221 340  0.1+  0.5+
031022 428  0.4+  0.1+    031114 E14  0.5+  0.3-    031221 340  0.5+  0.5+
031022 D82  1.9+  0.1-    031114 E14  0.2-  1.0-    031221 340  0.1-  1.2+
031022 D82  1.0-  1.1+    031114 E14  0.3+  0.5-    031222 333 (4.1+  2.1-)
031022 D82 (2.1-  0.8+)   031115 834  0.6-  0.7-    031222 333 (2.2+  1.0-)
031022 E14  0.1+  0.0     031115 834  0.6-  0.7-    031222 333 (2.1+  0.7-)
031022 E14  0.0   0.3-    031115 834  0.9-  0.4-    031223 349  0.1+  0.6-
031022 E14  0.1+  0.3-    031115 834  0.6-  0.4-    031223 349  0.4+  1.2-
031022 834  0.3-  0.2-    031116 349 (0.4+  2.3+)   031223 349  0.8+  1.4-
031023 834  0.5-  0.2-    031116 349  1.4+  0.9-    031223 349  0.7-  0.6-
031023 834  0.6-  0.6-    031117 372 (3.5+  0.7+)   031223 D70  1.0+  0.2+
031023 834  0.5-  0.4-    031117 372  0.9+  1.4+    031223 D70  0.1-  1.1+
031023 834  0.4-  0.2-    031117 372 (3.0+  2.0+)   031223 367  0.8+  0.9+
031024 834  0.8-  0.6-    031117 372 (2.2+  1.8+)   031223 367  0.7+  0.3+
031024 834  0.7-  0.3-    031121 372  0.6+  1.0+    031223 367  0.3+  0.3-
031024 E14  0.0   0.3-    031121 372  1.1+  0.8+    031223 D70  0.2-  0.0
031024 E14  0.0   0.1-    031122 834  0.2-  0.6-    031226 372  1.0-  0.4+
031024 E14  0.2-  0.5-    031122 834  0.2-  0.3-    031226 372  0.8-  0.2-
031026 E14  0.1-  0.0     031122 834  0.1-  0.2-    031226 372  0.5-  0.6+
031026 E14  0.1+  0.3-    031123 900  0.3+  0.8-    031228 D70  0.1+  0.1+
031026 E14  0.1+  0.2-    031123 900  1.2+  0.5-    031228 D70  0.2-  0.5+
031027 834  0.6-  0.4-    031125 372 (0.6+  2.6+)   031228 D70  0.6+  0.5-
031027 834  0.1-  0.3+    031125 372 (1.3+  2.4+)

     The "original" and "future" barycentric values of 1/a are +0.000176
and +0.000878 (+/- 0.000043) AU**-1, respectively.

Brian G. Marsden             (C) Copyright 2004 MPC           M.P.E.C. 2004-A08

Read MPEC 2004-A07 Read MPEC 2004-A09


Our Web policy. Index to the CBAT/MPC/ICQ pages.


Valid HTML 4.01!